CFG6HK EDDL-LGRP

Flight info

Callsign CFG6HK
Flight time N/A
Altitude 35000
Route KUMIK5Z KUMIK Y854 BOMBI DCT DETEV DCT DINKU DCT BESNI DCT LATLO DCT OBEDI DCT CEPRA DCT PODET DCT LURID DCT VABEK UL603 OLOTA DCT DISOR DCT KOROS DCT MES UN139 LURUS UL995 USINI/N0397F230 L995 CODIC
Aircraft A320/M-SDE3FGHIJ1LORVWXYZ/SB1

Departure

Time 2026-04-30 14:00
Airport Düsseldorf Airport (EDDL)

Arrival

Time N/A
Airport Rhodes International Airport "Diagoras" (LGRP)
Time Latitude Longitude Altitude Speed Heading
2026-04-30 13:22 51.28035 6.76223 124 ft 0 kts 163°
2026-04-30 13:52 51.28037 6.76222 128 ft 2 kts 163°
2026-04-30 13:53 51.28062 6.76211 123 ft 4 kts 166°
2026-04-30 13:53 51.28088 6.76202 125 ft 4 kts 174°
2026-04-30 13:53 51.28115 6.76202 128 ft 4 kts 195°
2026-04-30 13:53 51.28132 6.76216 127 ft 0 kts 232°
2026-04-30 13:56 51.28129 6.76210 126 ft 3 kts 232°
2026-04-30 13:56 51.28104 6.76157 127 ft 9 kts 232°
2026-04-30 13:56 51.28081 6.76071 126 ft 10 kts 277°
2026-04-30 13:56 51.28107 6.75987 127 ft 8 kts 277°
2026-04-30 13:57 51.28068 6.75891 127 ft 12 kts 231°
2026-04-30 13:57 51.28022 6.75796 127 ft 10 kts 232°
2026-04-30 13:57 51.27983 6.75715 124 ft 8 kts 233°
2026-04-30 13:57 51.27950 6.75645 126 ft 7 kts 233°
2026-04-30 13:58 51.27910 6.75560 125 ft 13 kts 232°
2026-04-30 13:58 51.27866 6.75327 124 ft 12 kts 327°
2026-04-30 13:58 51.27940 6.75270 123 ft 11 kts 334°
2026-04-30 13:59 51.28003 6.75288 123 ft 12 kts 47°
2026-04-30 13:59 51.28168 6.75634 123 ft 74 kts 52°
2026-04-30 13:59 51.28607 6.76552 125 ft 132 kts 53°
2026-04-30 13:59 51.29235 6.77889 387 ft 156 kts 57°
2026-04-30 14:00 51.29870 6.79264 1192 ft 153 kts 57°
2026-04-30 14:00 51.31299 6.82247 1931 ft 192 kts 56°
2026-04-30 14:00 51.32147 6.84040 2257 ft 211 kts 57°
2026-04-30 14:01 51.33084 6.86027 2569 ft 235 kts 57°
2026-04-30 14:01 51.33856 6.88390 3131 ft 244 kts 78°
2026-04-30 14:01 51.33850 6.91087 3901 ft 245 kts 107°
2026-04-30 14:01 51.33051 6.93496 4739 ft 247 kts 125°
2026-04-30 14:02 51.32052 6.95662 5698 ft 244 kts 126°
2026-04-30 14:02 51.31039 6.97836 6541 ft 246 kts 125°
2026-04-30 14:02 51.30010 7.00042 7290 ft 249 kts 125°
2026-04-30 14:02 51.28962 7.02286 8037 ft 254 kts 125°
2026-04-30 14:03 51.27899 7.04566 8773 ft 258 kts 124°
2026-04-30 14:03 51.26821 7.06888 9518 ft 262 kts 124°
2026-04-30 14:03 51.25729 7.09247 10258 ft 266 kts 124°
2026-04-30 14:03 51.24624 7.11700 10672 ft 282 kts 123°
2026-04-30 14:04 51.23481 7.14396 10847 ft 305 kts 122°
2026-04-30 14:04 51.22267 7.17320 11061 ft 324 kts 122°
2026-04-30 14:04 51.21007 7.20361 11561 ft 332 kts 121°
2026-04-30 14:04 51.19717 7.23457 12180 ft 336 kts 121°
2026-04-30 14:05 51.18409 7.26577 12810 ft 340 kts 121°
2026-04-30 14:05 51.17084 7.29719 13441 ft 343 kts 122°
2026-04-30 14:05 51.15740 7.32888 14065 ft 347 kts 122°
2026-04-30 14:05 51.14380 7.36091 14606 ft 351 kts 122°
2026-04-30 14:06 51.13000 7.39335 15154 ft 355 kts 122°
2026-04-30 14:06 51.10222 7.45848 16238 ft 361 kts 122°
2026-04-30 14:07 51.07379 7.52501 17313 ft 367 kts 122°
2026-04-30 14:07 51.05936 7.55872 17853 ft 369 kts 122°
2026-04-30 14:07 51.04484 7.59260 18387 ft 373 kts 121°
2026-04-30 14:08 51.01536 7.66123 19320 ft 378 kts 121°
2026-04-30 14:08 51.00046 7.69585 19746 ft 381 kts 121°
2026-04-30 14:08 50.97029 7.76586 20605 ft 387 kts 121°
2026-04-30 14:09 50.95503 7.80124 21038 ft 390 kts 121°
2026-04-30 14:09 50.93962 7.83682 21463 ft 393 kts 122°
2026-04-30 14:09 50.90857 7.90832 22263 ft 398 kts 122°
2026-04-30 14:10 50.89282 7.94456 22672 ft 401 kts 122°
2026-04-30 14:10 50.87694 7.98100 23070 ft 404 kts 122°
2026-04-30 14:10 50.86090 8.01777 23474 ft 406 kts 121°
2026-04-30 14:10 50.84473 8.05467 23852 ft 410 kts 123°
2026-04-30 14:11 50.82607 8.08919 24182 ft 416 kts 132°
2026-04-30 14:11 50.80489 8.12072 24503 ft 419 kts 133°
2026-04-30 14:11 50.78361 8.15228 24836 ft 420 kts 133°
2026-04-30 14:11 50.76225 8.18402 25156 ft 422 kts 133°
2026-04-30 14:12 50.74086 8.21589 25479 ft 424 kts 133°
2026-04-30 14:12 50.71934 8.24795 25801 ft 425 kts 133°
2026-04-30 14:12 50.69772 8.28004 26112 ft 427 kts 133°
2026-04-30 14:12 50.68334 8.30134 26320 ft 428 kts 133°
2026-04-30 14:13 50.65416 8.34451 26733 ft 431 kts 133°
2026-04-30 14:13 50.63227 8.37682 27014 ft 432 kts 133°
2026-04-30 14:13 50.61025 8.40929 27326 ft 434 kts 133°
2026-04-30 14:13 50.58816 8.44181 27592 ft 437 kts 133°
2026-04-30 14:14 50.56593 8.47450 27880 ft 439 kts 133°
2026-04-30 14:14 50.54361 8.50727 28175 ft 440 kts 133°
2026-04-30 14:14 50.52117 8.54024 28460 ft 441 kts 133°
2026-04-30 14:14 50.49874 8.57320 28732 ft 443 kts 133°
2026-04-30 14:15 50.47616 8.60629 28999 ft 445 kts 133°
2026-04-30 14:15 50.45350 8.63943 29258 ft 446 kts 133°
2026-04-30 14:15 50.43073 8.67264 29518 ft 448 kts 133°
2026-04-30 14:15 50.40782 8.70599 29770 ft 449 kts 133°
2026-04-30 14:16 50.38490 8.73935 30023 ft 451 kts 133°
2026-04-30 14:16 50.36185 8.77283 30310 ft 451 kts 133°
2026-04-30 14:16 50.33881 8.80617 30629 ft 450 kts 133°
2026-04-30 14:16 50.31584 8.83938 30927 ft 449 kts 133°
2026-04-30 14:17 50.29288 8.87258 31224 ft 449 kts 133°
2026-04-30 14:17 50.26999 8.90570 31516 ft 448 kts 133°
2026-04-30 14:17 50.24716 8.93871 31814 ft 447 kts 133°
2026-04-30 14:17 50.22435 8.97160 32084 ft 446 kts 133°
2026-04-30 14:18 50.20153 9.00444 32366 ft 446 kts 133°
2026-04-30 14:18 50.17906 9.03675 32645 ft 445 kts 133°
2026-04-30 14:18 50.13354 9.10208 33199 ft 444 kts 133°
2026-04-30 14:19 50.08806 9.16711 33767 ft 443 kts 133°
2026-04-30 14:19 50.06531 9.19956 33991 ft 444 kts 133°
2026-04-30 14:19 50.04253 9.23207 34229 ft 445 kts 133°
2026-04-30 14:20 50.01971 9.26458 34454 ft 445 kts 133°
2026-04-30 14:20 49.99688 9.29705 34671 ft 445 kts 133°
2026-04-30 14:20 49.95118 9.36185 35104 ft 445 kts 133°
2026-04-30 14:21 49.92833 9.39422 35292 ft 445 kts 133°
2026-04-30 14:21 49.90544 9.42657 35361 ft 445 kts 133°
2026-04-30 14:22 49.83680 9.52333 35367 ft 445 kts 133°
2026-04-30 14:22 49.76855 9.62095 35361 ft 445 kts 131°
2026-04-30 14:23 49.67885 9.75218 35356 ft 445 kts 131°
2026-04-30 14:24 49.61084 9.84997 35355 ft 445 kts 132°
2026-04-30 14:25 49.52010 9.97998 35372 ft 446 kts 131°
2026-04-30 14:26 49.45190 10.07738 35365 ft 446 kts 131°
2026-04-30 14:27 49.38355 10.17455 35354 ft 446 kts 131°
2026-04-30 14:27 49.33783 10.23943 35363 ft 447 kts 131°
2026-04-30 14:28 49.26929 10.33632 35399 ft 448 kts 131°
2026-04-30 14:28 49.22375 10.40056 35394 ft 447 kts 131°
2026-04-30 14:29 49.14244 10.52190 35416 ft 446 kts 129°
2026-04-30 14:31 49.02363 10.69817 35422 ft 447 kts 130°
2026-04-30 14:31 48.95652 10.79675 35397 ft 447 kts 130°
2026-04-30 14:32 48.88929 10.89522 35380 ft 448 kts 130°
2026-04-30 14:33 48.84438 10.96064 35368 ft 447 kts 130°
2026-04-30 14:33 48.77695 11.05869 35380 ft 447 kts 129°
2026-04-30 14:34 48.73202 11.12397 35369 ft 448 kts 130°
2026-04-30 14:34 48.69451 11.17826 35361 ft 448 kts 130°
2026-04-30 14:35 48.62028 11.28725 35357 ft 446 kts 127°
2026-04-30 14:36 48.57876 11.35662 35388 ft 444 kts 124°
2026-04-30 14:36 48.54496 11.41498 35380 ft 444 kts 124°
2026-04-30 14:37 48.50378 11.48469 35377 ft 445 kts 126°
2026-04-30 14:37 48.46203 11.55357 35358 ft 446 kts 126°
2026-04-30 14:38 48.41998 11.62231 35354 ft 446 kts 126°
2026-04-30 14:38 48.37803 11.69111 35385 ft 446 kts 126°
2026-04-30 14:39 48.33609 11.75987 35373 ft 446 kts 126°
2026-04-30 14:39 48.29410 11.82863 35364 ft 446 kts 126°
2026-04-30 14:40 48.23105 11.93142 35358 ft 446 kts 126°
2026-04-30 14:40 48.18922 11.99934 35354 ft 446 kts 126°
2026-04-30 14:41 48.14716 12.06751 35388 ft 446 kts 126°
2026-04-30 14:41 48.10473 12.13618 35364 ft 446 kts 126°
2026-04-30 14:42 48.06278 12.20383 35355 ft 447 kts 126°
2026-04-30 14:42 48.02045 12.27187 35352 ft 447 kts 126°
2026-04-30 14:43 47.97803 12.33981 35344 ft 447 kts 127°
2026-04-30 14:43 47.93550 12.40776 35340 ft 448 kts 127°
2026-04-30 14:44 47.89292 12.47574 35342 ft 449 kts 127°
2026-04-30 14:44 47.85026 12.54360 35336 ft 449 kts 127°
2026-04-30 14:45 47.80743 12.61151 35341 ft 450 kts 127°
2026-04-30 14:45 47.76455 12.67937 35338 ft 450 kts 127°
2026-04-30 14:46 47.72160 12.74721 35373 ft 451 kts 127°
2026-04-30 14:46 47.67847 12.81502 35349 ft 452 kts 128°
2026-04-30 14:47 47.63426 12.88164 35332 ft 454 kts 129°
2026-04-30 14:47 47.58947 12.94687 35328 ft 455 kts 129°
2026-04-30 14:48 47.54444 13.01264 35319 ft 455 kts 129°
2026-04-30 14:48 47.49956 13.07870 35342 ft 455 kts 129°
2026-04-30 14:49 47.45459 13.14486 35295 ft 457 kts 129°
2026-04-30 14:49 47.40940 13.21110 35289 ft 458 kts 130°
2026-04-30 14:50 47.34133 13.31012 35275 ft 458 kts 129°
2026-04-30 14:51 47.28354 13.42005 35310 ft 452 kts 120°
2026-04-30 14:52 47.22833 13.53214 35289 ft 453 kts 120°
2026-04-30 14:52 47.17256 13.64450 35273 ft 454 kts 121°
2026-04-30 14:53 47.11653 13.75739 35289 ft 457 kts 121°
2026-04-30 14:54 47.04117 13.90814 35287 ft 458 kts 121°
2026-04-30 14:55 46.98471 14.02080 35296 ft 459 kts 121°
2026-04-30 14:56 46.90876 14.17140 35311 ft 460 kts 122°
2026-04-30 14:57 46.85151 14.28444 35309 ft 462 kts 122°
2026-04-30 14:58 46.77478 14.43530 35341 ft 463 kts 122°
2026-04-30 14:58 46.71693 14.54816 35323 ft 463 kts 122°
2026-04-30 15:00 46.62031 14.73621 35332 ft 464 kts 123°
2026-04-30 15:01 46.54264 14.88623 35330 ft 465 kts 123°
2026-04-30 15:01 46.48414 14.99874 35339 ft 465 kts 123°
2026-04-30 15:02 46.44510 15.07347 35363 ft 465 kts 123°
2026-04-30 15:03 46.34823 15.26053 35327 ft 465 kts 122°
2026-04-30 15:04 46.25612 15.45357 35352 ft 467 kts 122°
2026-04-30 15:06 46.16181 15.64512 35357 ft 469 kts 124°
2026-04-30 15:07 46.07867 15.79089 35347 ft 471 kts 127°
2026-04-30 15:08 45.99505 15.93591 35336 ft 471 kts 127°
2026-04-30 15:09 45.89117 16.11747 35358 ft 472 kts 127°
2026-04-30 15:10 45.80722 16.26252 35355 ft 472 kts 127°
2026-04-30 15:11 45.68103 16.47959 35338 ft 474 kts 128°
2026-04-30 15:13 45.57517 16.66023 35351 ft 475 kts 128°
2026-04-30 15:14 45.42646 16.91219 35351 ft 475 kts 129°
2026-04-30 15:17 45.23385 17.23518 35343 ft 477 kts 130°
2026-04-30 15:19 45.05966 17.52038 35350 ft 479 kts 131°